H1 CPF 1 NER 2018 3 20 9 5791 glonass118 H2 0907003 9118 36113 2018 3 20 0 0 0 2018 3 23 23 45 0 900 1 1 0 0 0 H9 10 0 58197 0.00000 0 -11177949.701 10527821.614 20363803.307 10 0 58197 900.00000 0 -13571994.300 10814269.455 18691483.372 10 0 58197 1800.00000 0 -15713926.102 11234980.624 16656011.656 10 0 58197 2700.00000 0 -17556465.732 11747349.636 14296958.204 10 0 58197 3600.00000 0 -19062930.646 12301866.208 11660174.074 10 0 58197 4500.00000 0 -20208551.159 12844345.474 8796899.143 10 0 58197 5400.00000 0 -20981298.830 13318369.602 5762765.114 10 0 58197 6300.00000 0 -21382193.375 13667837.416 2616713.068 10 0 58197 7200.00000 0 -21425076.273 13839513.914 -580153.105 10 0 58197 8100.00000 0 -21135861.642 13785471.545 -3765754.917 10 0 58197 9000.00000 0 -20551296.941 13465319.690 -6878245.731 10 0 58197 9900.00000 0 -19717286.485 12848127.692 -9857211.609 10 0 58197 10800.00000 0 -18686849.220 11913959.822 -12644843.084 10 0 58197 11700.00000 0 -17517797.262 10654956.844 -15187054.990 10 0 58197 12600.00000 0 -16270233.316 9075918.076 -17434532.681 10 0 58197 13500.00000 0 -15003972.347 7194358.711 -19343684.660 10 0 58197 14400.00000 0 -13775995.742 5040039.077 -20877483.625 10 0 58197 15300.00000 0 -12638044.594 2653984.591 -22006180.190 10 0 58197 16200.00000 0 -11634452.561 87036.158 -22707876.086 10 0 58197 17100.00000 0 -10800308.588 -2602009.828 -22968946.360 10 0 58197 18000.00000 0 -10160025.895 -5348595.732 -22784302.802 10 0 58197 18900.00000 0 -9726376.621 -8084841.299 -22157493.761 10 0 58197 19800.00000 0 -9500032.089 -10742126.707 -21100638.398 10 0 58197 20700.00000 0 -9469627.710 -13253713.868 -19634196.363 10 0 58197 21600.00000 0 -9612349.605 -15557298.203 -17786576.858 10 0 58197 22500.00000 0 -9895018.309 -17597385.701 -15593593.907 10 0 58197 23400.00000 0 -10275624.107 -19327396.913 -13097777.678 10 0 58197 24300.00000 0 -10705249.435 -20711410.752 -10347554.410 10 0 58197 25200.00000 0 -11130297.393 -21725475.592 -7396310.183 10 0 58197 26100.00000 0 -11494932.252 -22358432.997 -4301356.314 10 0 58197 27000.00000 0 -11743628.582 -22612219.782 -1122816.264 10 0 58197 27900.00000 0 -11823720.785 -22501635.929 2077544.280 10 0 58197 28800.00000 0 -11687844.458 -22053588.236 5237520.990 10 0 58197 29700.00000 0 -11296165.461 -21305841.954 8295684.247 10 0 58197 30600.00000 0 -10618301.228 -20305333.214 11192578.079 10 0 58197 31500.00000 0 -9634851.980 -19106113.906 13871880.605 10 0 58197 32400.00000 0 -8338476.008 -17767016.236 16281502.906 10 0 58197 33300.00000 0 -6734462.324 -16349135.650 18374604.548 10 0 58197 34200.00000 0 -4840775.411 -14913238.623 20110505.682 10 0 58197 35100.00000 0 -2687569.019 -13517204.606 21455478.046 10 0 58197 36000.00000 0 -316188.219 -12213609.768 22383399.625 10 0 58197 36900.00000 0 2222299.442 -11047553.960 22876260.540 10 0 58197 37800.00000 0 4868983.298 -10054821.812 22924510.714 10 0 58197 38700.00000 0 7559321.905 -9260454.604 22527242.951 10 0 58197 39600.00000 0 10225596.901 -8677792.200 21692208.145 10 0 58197 40500.00000 0 12799506.959 -8308024.441 20435662.561 10 0 58197 41400.00000 0 15214794.591 -8140269.996 18782050.212 10 0 58197 42300.00000 0 17409796.987 -8152178.519 16763526.455 10 0 58197 43200.00000 0 19329815.330 -8311029.938 14419331.990 10 0 58197 44100.00000 0 20929204.453 -8575283.838 11795029.181 10 0 58197 45000.00000 0 22173096.221 -8896512.915 8941615.518 10 0 58197 45900.00000 0 23038685.344 -9221638.307 5914531.337 10 0 58197 46800.00000 0 23516024.569 -9495371.779 2772581.132 10 0 58197 47700.00000 0 23608296.692 -9662761.052 -423210.358 10 0 58197 48600.00000 0 23331552.841 -9671730.121 -3610784.792 10 0 58197 49500.00000 0 22713928.851 -9475506.660 -6728256.310 10 0 58197 50400.00000 0 21794373.476 -9034833.419 -9715113.174 10 0 58197 51300.00000 0 20620942.603 -8319869.668 -12513391.501 10 0 58197 52200.00000 0 19248731.751 -7311701.872 -15068798.202 10 0 58197 53100.00000 0 17737534.120 -6003399.323 -17331761.328 10 0 58197 54000.00000 0 16149322.703 -4400569.581 -19258387.823 10 0 58197 54900.00000 0 14545662.001 -2521389.485 -20811310.515 10 0 58197 55800.00000 0 12985157.588 -396109.508 -21960408.492 10 0 58197 56700.00000 0 11521049.803 1933949.012 -22683387.541 10 0 58197 57600.00000 0 10199051.597 4417863.178 -22966210.004 10 0 58197 58500.00000 0 9055520.273 6996984.443 -22803366.147 10 0 58197 59400.00000 0 8116038.744 9607144.454 -22197982.063 10 0 58197 60300.00000 0 7394464.930 12181100.483 -21161762.010 10 0 58197 61200.00000 0 6892488.422 14651119.954 -19714766.018 10 0 58197 62100.00000 0 6599712.487 16951597.754 -17885026.603 10 0 58197 63000.00000 0 6494257.537 19021598.366 -15708011.265 10 0 58197 63900.00000 0 6543860.505 20807217.547 -13225940.479 10 0 58197 64800.00000 0 6707423.674 22263665.558 -10486973.611 10 0 58197 65700.00000 0 6936947.530 23356985.184 -7544277.891 10 0 58197 66600.00000 0 7179765.895 24065332.655 -4454998.101 10 0 58197 67500.00000 0 7380988.554 24379767.887 -1279146.792 10 0 58197 68400.00000 0 7486047.646 24304520.805 1921563.388 10 0 58197 69300.00000 0 7443239.375 23856722.463 5084922.152 10 0 58197 70200.00000 0 7206152.646 23065612.385 8149434.959 10 0 58197 71100.00000 0 6735880.767 21971255.482 11055523.149 10 0 58197 72000.00000 0 6002921.587 20622822.982 13746686.740 10 0 58197 72900.00000 0 4988684.527 19076509.949 16170606.747 10 0 58197 73800.00000 0 3686539.653 17393177.395 18280165.196 10 0 58197 74700.00000 0 2102363.379 15635818.477 20034362.644 10 0 58197 75600.00000 0 254556.580 13866955.342 21399115.416 10 0 58197 76500.00000 0 -1826466.800 12146076.015 22347917.207 10 0 58197 77400.00000 0 -4099300.260 10527218.722 22862352.443 10 0 58197 78300.00000 0 -6513032.685 9056804.502 22932451.834 10 0 58197 79200.00000 0 -9009142.522 7771808.335 22556883.580 10 0 58197 80100.00000 0 -11523719.919 6698344.649 21742976.806 10 0 58197 81000.00000 0 -13989924.944 5850725.477 20506577.024 10 0 58197 81900.00000 0 -16340580.168 5231029.700 18871736.470 10 0 58197 82800.00000 0 -18510790.064 4829200.332 16870245.332 10 0 58197 83700.00000 0 -20440478.580 4623664.640 14541012.871 10 0 58197 84600.00000 0 -22076739.568 4582449.916 11929310.235 10 0 58197 85500.00000 0 -23375902.264 4664746.925 9085889.655 10 0 58198 0.00000 0 -24305226.032 4822854.203 6065997.074 10 0 58198 900.00000 0 -24844153.700 5004420.128 2928297.039 10 0 58198 1800.00000 0 -24985072.188 5154887.778 -266268.063 10 0 58198 2700.00000 0 -24733547.732 5220037.699 -3455663.284 10 0 58198 3600.00000 0 -24108028.017 5148521.347 -6577966.714 10 0 58198 4500.00000 0 -23139023.120 4894276.882 -9572571.882 10 0 58198 5400.00000 0 -21867800.795 4418724.937 -12381363.412 10 0 58198 6300.00000 0 -20344651.168 3692650.993 -14949843.002 10 0 58198 7200.00000 0 -18626794.024 2697694.417 -17228183.870 10 0 58198 8100.00000 0 -16776016.642 1427380.779 -19172193.527 10 0 58198 9000.00000 0 -14856140.978 -112346.749 -20744166.669 10 0 58198 9900.00000 0 -12930426.007 -1903120.074 -21913612.154 10 0 58198 10800.00000 0 -11059013.256 -3914664.341 -22657840.653 10 0 58198 11700.00000 0 -9296521.556 -6105821.119 -22962402.164 10 0 58198 12600.00000 0 -7689890.620 -8426035.180 -22821365.347 10 0 58198 13500.00000 0 -6276562.533 -10817244.268 -22237433.550 10 0 58198 14400.00000 0 -5083076.136 -13216094.584 -21221895.265 10 0 58198 15300.00000 0 -4124132.147 -15556390.934 -19794409.727 10 0 58198 16200.00000 0 -3402167.331 -17771680.753 -17982631.317 10 0 58198 17100.00000 0 -2907454.808 -19797865.324 -15821679.345 10 0 58198 18000.00000 0 -2618725.794 -21575729.959 -13353462.752 10 0 58198 18900.00000 0 -2504286.147 -23053288.040 -10625872.079 10 0 58198 19800.00000 0 -2523580.361 -24187841.069 -7691853.663 10 0 58198 20700.00000 0 -2629136.633 -24947668.507 -4608383.662 10 0 58198 21600.00000 0 -2768810.479 -25313276.405 -1435361.600 10 0 58198 22500.00000 0 -2888231.498 -25278152.077 1765555.072 10 0 58198 23400.00000 0 -2933349.099 -24848992.936 4932152.304 10 0 58198 24300.00000 0 -2852968.640 -24045399.494 8002872.891 10 0 58198 25200.00000 0 -2601169.622 -22899045.292 10918017.780 10 0 58198 26100.00000 0 -2139502.556 -21452358.778 13620911.210 10 0 58198 27000.00000 0 -1438870.496 -19756772.588 16059006.442 10 0 58198 27900.00000 0 -481014.537 -17870613.991 18184910.188 10 0 58198 28800.00000 0 740460.500 -15856725.239 19957305.496 10 0 58198 29700.00000 0 2219564.588 -13779913.800 21341755.154 10 0 58198 30600.00000 0 3937928.283 -11704339.341 22311370.177 10 0 58198 31500.00000 0 5865336.522 -9690946.767 22847330.602 10 0 58198 32400.00000 0 7960769.123 -7795052.352 22939248.901 10 0 58198 33300.00000 0 10173905.342 -6064183.302 22585369.310 10 0 58198 34200.00000 0 12447030.426 -4536260.310 21792599.497 10 0 58198 35100.00000 0 14717265.304 -3238198.089 20576374.212 10 0 58198 36000.00000 0 16919027.020 -2184981.255 18960353.598 10 0 58198 36900.00000 0 18986617.738 -1379253.010 16975962.045 10 0 58198 37800.00000 0 20856834.706 -811432.562 14661776.426 10 0 58198 38700.00000 0 22471492.586 -460354.972 12062775.407 10 0 58198 39600.00000 0 23779752.949 -294405.337 9229464.337 10 0 58198 40500.00000 0 24740163.767 -273098.286 6216892.667 10 0 58198 41400.00000 0 25322323.775 -349035.127 3083582.949 10 0 58198 42300.00000 0 25508102.129 -470155.049 -109607.501 10 0 58198 43200.00000 0 25292362.548 -582184.375 -3300669.965 10 0 58198 44100.00000 0 24683161.829 -631179.571 -6427649.442 10 0 58198 45000.00000 0 23701414.755 -566055.851 -9429847.715 10 0 58198 45900.00000 0 22380039.784 -340993.869 -12249000.846 10 0 58198 46800.00000 0 20762621.641 82377.686 -14830408.097 10 0 58198 47700.00000 0 18901647.101 733116.236 -17123990.432 10 0 58198 48600.00000 0 16856387.903 1629495.390 -19085258.295 10 0 58198 49500.00000 0 14690519.238 2777993.475 -20676170.382 10 0 58198 50400.00000 0 12469573.087 4172783.723 -21865867.240 10 0 58198 51300.00000 0 10258332.168 5795748.393 -22631266.111 10 0 58198 52200.00000 0 8118272.457 7617017.323 -22957506.094 10 0 58198 53100.00000 0 6105160.087 9596009.491 -22838235.414 10 0 58198 54000.00000 0 4266901.746 11682935.410 -22275735.532 10 0 58198 54900.00000 0 2641737.090 13820699.001 -21280879.695 10 0 58198 55800.00000 0 1256847.602 15947120.848 -19872926.487 10 0 58198 56700.00000 0 127438.915 17997391.332 -18079151.904 10 0 58198 57600.00000 0 -743665.929 19906652.282 -15934326.399 10 0 58198 58500.00000 0 -1365905.995 21612600.075 -13480046.309 10 0 58198 59400.00000 0 -1760340.519 23058001.874 -10763931.855 10 0 58198 60300.00000 0 -1958513.102 24193019.923 -7838706.599 10 0 58198 61200.00000 0 -2000870.389 24977246.380 -4761175.821 10 0 58198 62100.00000 0 -1934802.491 25381363.027 -1591123.426 10 0 58198 63000.00000 0 -1812388.619 25388355.866 1609851.184 10 0 58198 63900.00000 0 -1687943.827 24994232.924 4779533.258 10 0 58198 64800.00000 0 -1615471.542 24208214.465 7856306.096 10 0 58198 65700.00000 0 -1646130.597 23052387.391 10780353.486 10 0 58198 66600.00000 0 -1825824.956 21560837.847 13494827.094 10 0 58198 67500.00000 0 -2193019.148 19778298.413 15946955.545 10 0 58198 68400.00000 0 -2776872.776 17758366.604 18089073.229 10 0 58198 69300.00000 0 -3595773.911 15561369.348 19879548.494 10 0 58198 70200.00000 0 -4656334.247 13251962.951 21283593.183 10 0 58198 71100.00000 0 -5952889.299 10896568.909 22273937.935 10 0 58198 72000.00000 0 -7467525.586 8560752.683 22831360.364 10 0 58198 72900.00000 0 -9170634.532 6306654.560 22945056.272 10 0 58198 73800.00000 0 -11021970.730 4190579.279 22612847.025 10 0 58198 74700.00000 0 -12972170.969 2260844.339 21841219.398 10 0 58198 75600.00000 0 -14964671.182 555975.776 20645197.357 10 0 58198 76500.00000 0 -16937941.793 -896674.425 19048048.324 10 0 58198 77400.00000 0 -18827948.454 -2081832.745 17080829.663 10 0 58198 78300.00000 0 -20570735.724 -2996693.956 14781784.058 10 0 58198 79200.00000 0 -22105025.908 -3650781.492 12195595.372 10 0 58198 80100.00000 0 -23374724.443 -4065285.606 9372519.342 10 0 58198 81000.00000 0 -24331227.046 -4271908.551 6367405.924 10 0 58198 81900.00000 0 -24935431.964 -4311266.724 3238632.262 10 0 58198 82800.00000 0 -25159372.938 -4230918.267 46967.238 10 0 58198 83700.00000 0 -24987404.391 -4083100.492 -3145610.126 10 0 58198 84600.00000 0 -24416889.129 -3922273.585 -6277115.207 10 0 58198 85500.00000 0 -23458359.739 -3802575.171 -9286761.454 10 0 58199 0.00000 0 -22135147.032 -3775293.926 -12116139.588 10 0 58199 900.00000 0 -20482490.856 -3886469.854 -14710349.666 10 0 58199 1800.00000 0 -18546171.358 -4174721.893 -17019063.202 10 0 58199 2700.00000 0 -16380716.739 -4669396.812 -18997496.073 10 0 58199 3600.00000 0 -14047263.187 -5389115.770 -20607273.049 10 0 58199 4500.00000 0 -11611155.470 -6340781.580 -21817167.912 10 0 58199 5400.00000 0 -9139387.828 -7519088.389 -22603705.451 10 0 58199 6300.00000 0 -6697990.959 -8906555.325 -22951614.252 10 0 58199 7200.00000 0 -4349473.052 -10474083.556 -22854121.928 10 0 58199 8100.00000 0 -2150420.287 -12182014.578 -22313087.357 10 0 58199 9000.00000 0 -149355.527 -13981646.641 -21338967.391 10 0 58199 9900.00000 0 1615056.644 -15817147.132 -19950618.435 10 0 58199 10800.00000 0 3115384.904 -17627782.133 -18174936.267 10 0 58199 11700.00000 0 4336329.784 -19350371.004 -16046340.423 10 0 58199 12600.00000 0 5275109.193 -20921864.047 -13606112.387 10 0 58199 13500.00000 0 5941315.567 -22281935.911 -10901599.699 10 0 58199 14400.00000 0 6356251.371 -23375486.273 -7985300.699 10 0 58199 15300.00000 0 6551771.522 -24154942.789 -4913847.306 10 0 58199 16200.00000 0 6568682.185 -24582269.269 -1746905.328 10 0 58199 17100.00000 0 6454764.188 -24630594.169 1453986.342 10 0 58199 18000.00000 0 6262505.245 -24285390.173 4626614.667 10 0 58199 18900.00000 0 6046637.692 -23545154.585 7709305.797 10 0 58199 19800.00000 0 5861586.750 -22421561.026 10642128.622 10 0 58199 20700.00000 0 5758938.210 -20939075.515 13368064.373 10 0 58199 21600.00000 0 5785033.646 -19134052.678 15834119.037 10 0 58199 22500.00000 0 5978795.728 -17053349.509 17992356.489 10 0 58199 23400.00000 0 6369876.374 -14752514.610 19800831.965 10 0 58199 24300.00000 0 6977206.746 -12293628.539 21224407.677 10 0 58199 25200.00000 0 7808011.000 -9742885.318 22235434.920 10 0 58199 26100.00000 0 8857325.998 -7168015.945 22814289.616 10 0 58199 27000.00000 0 10108047.876 -4635661.029 22949751.311 10 0 58199 27900.00000 0 11531504.164 -2208801.534 22639218.627 10 0 58199 28800.00000 0 13088528.020 55645.918 21888757.304 10 0 58199 29700.00000 0 14730990.105 2108969.915 20712980.130 10 0 58199 30600.00000 0 16403724.455 3912453.134 19134761.194 10 0 58199 31500.00000 0 18046768.016 5438735.781 17184789.998 10 0 58199 32400.00000 0 19597820.416 6672698.030 14900973.996 10 0 58199 33300.00000 0 20994821.102 7611826.030 12327700.985 10 0 58199 34200.00000 0 22178535.883 8266047.547 9514975.595 10 0 58199 35100.00000 0 23095044.437 8657045.664 6517446.544 10 0 58199 36000.00000 0 23698024.285 8817080.792 3393343.578 10 0 58199 36900.00000 0 23950735.175 8787371.885 203344.931 10 0 58199 37800.00000 0 23827620.385 8616106.319 -2990602.466 10 0 58199 38700.00000 0 23315457.458 8356163.478 -6126486.883 10 0 58199 39600.00000 0 22414009.869 8062649.025 -9143435.988 10 0 58199 40500.00000 0 21136152.092 7790344.752 -11982897.799 10 0 58199 41400.00000 0 19507462.591 7591182.253 -14589775.370 10 0 58199 42300.00000 0 17565301.597 7511847.477 -16913493.137 10 0 58199 43200.00000 0 15357411.983 7591617.533 -18908974.540 10 0 58199 44100.00000 0 12940101.259 7860521.160 -20537512.373 10 0 58199 45000.00000 0 10376080.110 8337900.564 -21767515.439 10 0 58199 45900.00000 0 7732046.879 9031435.414 -22575117.701 10 0 58199 46800.00000 0 5076117.691 9936670.456 -22944638.668 10 0 58199 47700.00000 0 2475208.231 11037067.145 -22868886.543 10 0 58199 48600.00000 0 -7525.056 12304577.905 -22349298.539 10 0 58199 49500.00000 0 -2315079.153 13700719.875 -21395915.692 10 0 58199 50400.00000 0 -4398735.524 15178104.164 -20027192.416 10 0 58199 51300.00000 0 -6219840.509 16682357.603 -18269644.058 10 0 58199 52200.00000 0 -7751161.937 18154357.463 -16157338.584 10 0 58199 53100.00000 0 -8977766.200 19532686.254 -13731241.590 10 0 58199 54000.00000 0 -9897380.045 20756204.237 -11038426.507 10 0 58199 54900.00000 0 -10520222.680 21766631.954 -8131164.712 10 0 58199 55800.00000 0 -10868315.880 22511034.179 -5065912.725 10 0 58199 56700.00000 0 -10974301.890 22944100.568 -1902215.962 10 0 58199 57600.00000 0 -10879819.601 23030126.476 1298449.684 10 0 58199 58500.00000 0 -10633508.185 22744609.692 4473875.543 10 0 58199 59400.00000 0 -10288723.359 22075395.036 7562333.400 10 0 58199 60300.00000 0 -9901063.565 21023317.580 10503780.104 10 0 58199 61200.00000 0 -9525811.627 19602316.643 13241029.361 10 0 58199 62100.00000 0 -9215400.872 17839014.956 15720867.417 10 0 58199 63000.00000 0 -9017013.693 15771779.968 17895090.496 10 0 58199 63900.00000 0 -8970414.709 13449306.204 19721443.468 10 0 58199 64800.00000 0 -9106110.647 10928777.432 21164441.524 10 0 58199 65700.00000 0 -9443915.121 8273685.152 22196059.004 10 0 58199 66600.00000 0 -9991979.260 5551394.095 22796272.253 10 0 58199 67500.00000 0 -10746329.353 2830555.830 22953446.333 10 0 58199 68400.00000 0 -11690931.363 178477.628 22664558.487 10 0 58199 69300.00000 0 -12798279.894 -2341444.434 21935254.296 10 0 58199 70200.00000 0 -14030487.189 -4672122.131 20779735.735 10 0 58199 71100.00000 0 -15340826.775 -6764902.723 19220483.352 10 0 58199 72000.00000 0 -16675667.183 -8581339.946 17287818.018 10 0 58199 72900.00000 0 -17976714.795 -10094535.796 15019310.628 10 0 58199 73800.00000 0 -19183471.819 -11289998.425 12459051.073 10 0 58199 74700.00000 0 -20235806.141 -12165981.627 9656790.565 10 0 58199 75600.00000 0 -21076525.057 -12733293.140 6666973.906 10 0 58199 76500.00000 0 -21653844.522 -13014581.271 3547680.454 10 0 58199 77400.00000 0 -21923649.826 -13043131.119 359494.578 10 0 58199 78300.00000 0 -21851452.335 -12861222.411 -2835672.280 10 0 58199 79200.00000 0 -21413959.626 -12518119.270 -5975784.776 10 0 58199 80100.00000 0 -20600192.627 -12067777.678 -8999888.351 10 0 58199 81000.00000 0 -19412102.463 -11566368.191 -11849291.807 10 0 58199 81900.00000 0 -17864660.637 -11069719.040 -14468704.755 10 0 58199 82800.00000 0 -15985418.384 -10630787.911 -16807307.779 10 0 58199 83700.00000 0 -13813553.130 -10297269.257 -18819734.861 10 0 58199 84600.00000 0 -11398441.294 -10109438.091 -20466949.381 10 0 58199 85500.00000 0 -8797816.402 -10098321.056 -21716997.218 10 0 58200 0.00000 0 -6075588.470 -10284271.711 -22545622.942 10 0 58200 900.00000 0 -3299414.269 -10676010.344 -22936737.806 10 0 58200 1800.00000 0 -538118.881 -11270167.769 -22882730.755 10 0 58200 2700.00000 0 2140925.670 -12051354.447 -22384616.882 10 0 58200 3600.00000 0 4674357.211 -12992750.669 -21452020.419 10 0 58200 4500.00000 0 7005210.068 -14057194.998 -20102992.337 10 0 58200 5400.00000 0 9085033.767 -15198725.543 -18363665.699 10 0 58200 6300.00000 0 10875656.551 -16364510.347 -16267754.740 10 0 58200 7200.00000 0 12350521.083 -17497086.509 -13855906.700 10 0 58200 8100.00000 0 13495537.392 -18536814.530 -11174918.233 10 0 58200 9000.00000 0 14309418.132 -19424444.992 -8276830.864 10 0 58200 9900.00000 0 14803482.698 -20103689.583 -5217922.707 10 0 58200 10800.00000 0 15000939.147 -20523687.932 -2057615.709 10 0 58200 11700.00000 0 14935674.683 -20641265.706 1142680.323 10 0 58200 12600.00000 0 14650606.479 -20422888.087 4320764.096 10 0 58200 13500.00000 0 14195663.010 -19846225.216 7414855.890 10 0 58200 14400.00000 0 13625481.908 -18901262.511 10364803.145 10 0 58200 15300.00000 0 12996922.502 -17590908.125 13113254.399 10 0 58200 16200.00000 0 12366498.875 -15931070.917 15606778.191 10 0 58200 17100.00000 0 11787842.644 -13950204.723 17796904.767 10 0 58200 18000.00000 0 11309303.179 -11688337.193 19641069.949 10 0 58200 18900.00000 0 10971787.087 -9195623.196 21103442.839 10 0 58200 19800.00000 0 10806928.413 -6530482.567 22155621.401 10 0 58200 20700.00000 0 10835666.915 -3757399.505 22777182.617 10 0 58200 21600.00000 0 11067294.383 -944474.749 22956076.952 10 0 58200 22500.00000 0 11499009.196 1839168.140 22688859.848 10 0 58200 23400.00000 0 12115997.826 4526015.004 21980756.047 10 0 58200 24300.00000 0 12892039.882 7052723.125 20845555.790 10 0 58200 25200.00000 0 13790611.235 9362507.333 19305344.978 10 0 58200 26100.00000 0 14766438.854 11407251.790 17390074.562 10 0 58200 27000.00000 0 15767441.998 13149260.546 15136977.449 10 0 58200 27900.00000 0 16736978.084 14562575.078 12589844.032 10 0 58200 28800.00000 0 17616298.671 15633804.914 9798170.378 10 0 58200 29700.00000 0 18347112.034 16362437.967 6816195.485 10 0 58200 30600.00000 0 18874144.226 16760618.875 3701846.281 10 0 58200 31500.00000 0 19147590.421 16852405.927 515611.099 10 0 58200 32400.00000 0 19125352.935 16672539.108 -2680636.363 10 0 58200 33300.00000 0 18774971.204 16264772.261 -5824839.456 10 0 58200 34200.00000 0 18075161.997 15679840.634 -8855963.676 10 0 58200 35100.00000 0 17016904.519 14973150.349 -11715180.822 10 0 58200 36000.00000 0 15604024.243 14202287.835 -14347009.148 10 0 58200 36900.00000 0 13853250.336 13424454.633 -16700387.326 10 0 58200 37800.00000 0 11793743.619 12693935.887 -18729661.640 10 0 58200 38700.00000 0 9466114.000 12059709.144 -20395467.671 10 0 58200 39600.00000 0 6920967.624 11563293.965 -21665489.824 10 0 58200 40500.00000 0 4217043.361 11236932.577 -22515084.584 10 0 58200 41400.00000 0 1419015.110 11102177.780 -22927756.015 10 0 58200 42300.00000 0 -1404949.716 11168947.251 -22895474.681 10 0 58200 43200.00000 0 -4185775.331 11435083.901 -22418834.152 10 0 58200 44100.00000 0 -6856100.187 11886440.835 -21507042.080 10 0 58200 45000.00000 0 -9352829.238 12497487.630 -20177745.828 10 0 58200 45900.00000 0 -11619510.939 13232412.888 -18456695.589 10 0 58200 46800.00000 0 -13608441.124 14046677.272 -16377250.886 10 0 58200 47700.00000 0 -15282406.964 14888952.238 -13979739.284 10 0 58200 48600.00000 0 -16615998.995 15703363.365 -11310679.035 10 0 58200 49500.00000 0 -17596437.065 16431944.101 -8421879.993 10 0 58200 50400.00000 0 -18223876.072 17017196.577 -5369439.882 10 0 58200 51300.00000 0 -18511179.200 17404651.239 -2212655.081 10 0 58200 52200.00000 0 -18483168.781 17545316.856 987132.872 10 0 58200 53100.00000 0 -18175386.763 17397916.700 4167732.313 10 0 58200 54000.00000 0 -17632417.603 16930815.488 7267314.341 10 0 58200 54900.00000 0 -16905845.095 16123554.739 10225619.387 10 0 58200 55800.00000 0 -16051929.955 14967930.517 12985133.259 10 0 58200 56700.00000 0 -15129106.973 13468567.031 15492209.269 10 0 58200 57600.00000 0 -14195408.073 11642960.847 17698114.141 10 0 58200 58500.00000 0 -13305920.470 9520992.773 19559977.041 10 0 58200 59400.00000 0 -12510387.540 7143926.916 21041623.257 10 0 58200 60300.00000 0 -11851053.742 4562937.927 22114276.456 10 0 58200 61200.00000 0 -11360844.390 1837227.247 22757116.096 10 0 58200 62100.00000 0 -11061956.797 -968193.782 22957679.593 10 0 58200 63000.00000 0 -10964921.791 -3784962.353 22712101.786 10 0 58200 63900.00000 0 -11068174.758 -6543962.407 22025187.392 10 0 58200 64800.00000 0 -11358153.887 -9177955.339 20910315.305 10 0 58200 65700.00000 0 -11809921.108 -11624134.549 19389176.717 10 0 58200 66600.00000 0 -12388279.274 -13826498.288 17491352.156 10 0 58200 67500.00000 0 -13049338.272 -15737942.960 15253735.566 10 0 58200 68400.00000 0 -13742463.846 -17321990.594 12719816.460 10 0 58200 69300.00000 0 -14412526.778 -18554079.363 9938833.976 10 0 58200 70200.00000 0 -15002357.337 -19422364.328 6964819.176 10 0 58200 71100.00000 0 -15455301.202 -19927996.039 3855544.140 10 0 58200 72000.00000 0 -15717768.657 -20084866.409 671398.475 10 0 58200 72900.00000 0 -15741669.115 -19918833.692 -2525784.778 10 0 58200 73800.00000 0 -15486627.781 -19466460.257 -5673930.783 10 0 58200 74700.00000 0 -14921890.464 -18773317.192 -8711928.360 10 0 58200 75600.00000 0 -14027835.699 -17891928.040 -11580815.695 10 0 58200 76500.00000 0 -12797029.868 -16879438.854 -14224923.111 10 0 58200 77400.00000 0 -11234780.300 -15795113.148 -16592950.731 10 0 58200 78300.00000 0 -9359162.324 -14697757.425 -18638960.342 10 0 58200 79200.00000 0 -7200518.284 -13643185.515 -20323262.611 10 0 58200 80100.00000 0 -4800448.488 -12681828.166 -21613182.925 10 0 58200 81000.00000 0 -2210335.161 -11856587.901 -22483691.603 10 0 58200 81900.00000 0 510540.332 -11201028.762 -22917886.863 10 0 58200 82800.00000 0 3297209.792 -10737976.423 -22907321.593 10 0 58200 83700.00000 0 6081469.371 -10478586.991 -22452167.928 10 0 58200 84600.00000 0 8794469.126 -10421923.227 -21561216.466 10 0 58200 85500.00000 0 11369334.463 -10555055.849 -20251709.972 99